DW4547 Weather Reports


Display with metric or nautical units.
time (UTC)temp
F
wind
direction
speed
MPH
gust
MPH
rain 1hr
in
rain 24hr
in
rain mn
in
humidity
%
barometer
mb
20260507092840 69 314 3.0 6.0 0.00 0.01 0.01 60 1013.4
20260507091840 68 283 1.0 6.0 0.00 0.01 0.01 61 1013.5
20260507090840 67 249 0.0 8.0 0.00 0.01 0.01 62 1013.5
20260507085840 68 277 6.0 8.0 0.00 0.01 0.01 66 1013.5
20260507084840 67 274 2.0 8.0 0.00 0.01 0.01 64 1013.5
20260507083840 67 326 3.0 7.0 0.00 0.01 0.01 66 1013.5
20260507082900 66 288 1.0 7.0 0.00 0.01 0.01 66 1013.5
20260507081840 66 303 2.0 7.0 0.00 0.01 0.01 66 1013.4
20260507080840 66 305 1.0 6.0 0.00 0.01 0.01 67 1013.2
20260507075840 66 316 2.0 3.0 0.00 0.01 0.01 70 1013.1
20260507074840 65 316 2.0 3.0 0.00 0.01 0.01 74 1013.1
20260507073840 64 318 1.0 5.0 0.00 0.01 0.01 75 1013.3
20260507072840 64 318 2.0 5.0 0.00 0.01 0.01 77 1013.3
20260507071840 64 319 0.0 5.0 0.00 0.01 0.01 78 1013.4
20260507070840 64 318 1.0 5.0 0.00 0.01 0.01 77 1013.3
20260507065840 64 270 5.0 5.0 0.00 0.01 0.01 78 1013.1
20260507064839 63 249 2.0 3.0 0.00 0.01 0.01 78 1013.1
20260507063839 62 270 3.0 7.0 0.00 0.01 0.01 79 1013.1
20260507062840 62 284 3.0 7.0 0.00 0.01 0.01 80 1013.0
20260507061840 61 274 6.0 7.0 0.00 0.01 0.01 82 1013.0
20260507030839 61 312 1.0 3.0 0.00 0.01 0.00 76 1012.0
20260507025839 62 298 0.0 3.0 0.00 0.01 0.00 74 1011.8
20260507024839 62 298 2.0 3.0 0.00 0.01 0.00 73 1011.7
20260507023839 62 284 0.0 7.0 0.00 0.01 0.00 73 1011.6
20260507022839 61 280 3.0 7.0 0.00 0.01 0.00 75 1011.6
20260507021839 61 17 2.0 7.0 0.00 0.01 0.00 75 1011.4
20260507020859 62 14 2.0 9.0 0.00 0.01 0.00 75 1011.6
20260507015839 62 299 0.0 9.0 0.00 0.01 0.00 74 1011.4
20260506225838 62 293 2.0 8.0 0.00 0.01 0.00 76 1011.8
20260506224838 63 299 0.0 8.0 0.00 0.01 0.00 75 1011.8
20260506223838 63 118 2.0 3.0 0.00 0.01 0.00 77 1012.0
20260506222838 63 118 0.0 2.0 0.00 0.01 0.00 76 1011.9
20260506221838 64 118 0.0 2.0 0.00 0.01 0.00 74 1011.7
20260506220838 63 118 3.0 3.0 0.00 0.01 0.01 75 1011.6
20260506153837 67 122 1.0 6.0 0.00 0.01 0.01 76 1010.6
20260506152837 67 99 3.0 6.0 0.00 0.01 0.01 76 1010.4
20260506151837 67 178 2.0 4.0 0.00 0.01 0.01 76 1010.7
20260506150837 67 110 5.0 5.0 0.00 0.01 0.01 76 1010.6